Weather in Mosonmagyarovar

Hungary     47°52′25″N   17°16′05″E
temp.,
°C
wind,
m/s
gust,
m/s
humid.,
%
clouds,
%
prec.,
mm/h
press.,
hPa
HPBL,
m
13 april, tue
tue1323:00+3nw111892100 0.6 1024949
02:00+3nnw10168691 0.6 1024888
05:00+2nnw10178996 0.0 1024803
08:00+3nnw111782100 0.0 1023930
11:00+4nnw111679100 0.1 10231215
14:00+5nnw111783100 1.0 10231368
17:00+4nnw101795100 2.0 10221225
20:00+3nnw111791100 4.3 1023988
14 april, wed
wed1423:00+3nnw91786100 0.9 10231082
02:00+4nnw91676100 1.3 10231172
05:00+3nnw81476100 0.1 10221022
08:00+4nnw81476100 0.1 10231129
11:00+7nnw101357100 0.1 10231867
14:00+8nnw91255100 0.5 10221823
17:00+9nnw8114585 0.1 10222074
20:00+5nnw5115598 0.1 1023348
15 april, thu
thu1523:00+2nw411691 0.0 1023215
02:00+1nw512710 0.0 1023256
05:00+1nw512710 0.0 1022296
08:00+3nw713625 0.0 1023627
11:00+8nnw895085 0.0 10231738
14:00+10nnw6845100 0.1 10222217
17:00+10nnw684546 0.0 10201974
20:00
16 april, fri
fri1623:00+2nw477796 0.0 1022118
02:00+1nw410795 0.0 1022228
05:000nnw411845 0.0 1022253
08:00+3nnw59715 0.0 1022480
11:00+8nw57535 0.0 10221282
14:00+11nw564449 0.0 10211864
17:00+11n66475 0.0 10201657
20:00+4n47712 0.0 1022128
17 april, sat
sat1723:00+2nw33825 0.0 102136
02:00+1nw369096 0.0 1021114
05:00+1n3395100 0.0 102059
08:00+4n3582100 0.0 1021273
11:00+9nne3363100 0.0 1019792
14:00+11nne3458100 0.0 10181030
17:00+12n3455100 0.0 10171343
20:00+9nnw4976100 0.1 1016301